CAPE
0 0 0 0 0 0 0 0 0 0 0 0 0 0 0 0 0 0 0 0 0 0 0 0 0 0 0 0 0 0 0 0 0 0 0 0 0 0 0 0 0 0 0
0 0 0 0 0 0 0 0 0 0 0 0 0 0 0 0 0 0 0 0 0 0 0 0 0 0 0 0 0 0 0 0 0 0 0 0 0 0 0 0 0 0 0
0 0 0 0 0 0 0 0 0 0 0 0 0 0 0 0 0 0 0 0 0 0 0 0 0 0 0 0 0 0 0 0 0 0 0 0 0 0 0 0 0 0 0
0 0 0 0 0 0 0 0 0 0 0 0 0 0 0 0 0 0 0 0 0 0 0 0 0 0 0 0 0 0 0 0 0 0 0 0 0 0 0 0 0 0 0
0 0 0 0 0 0 0 0 0 0 0 0 0 0 0 0 0 0 0 0 0 0 0 0 0 0 0 0 0 0 0 0 0 0 0 0 0 0 0 0 0 0 0
0 0 0 0 0 0 0 0 0 0 0 0 0 0 0 0 0 0 0 0 0 0 0 0 0 0 0 0 0 0 0 0 0 0 0 0 0 0 0 0 0 0 0
0 0 0 0 0 0 0 0 0 0 0 0 0 0 0 0 0 0 0 0 0 0 0 0 0 0 0 0 0 0 0 0 0 0 0 0 0 0 0 0 0 0 0
0 0 0 0 0 0 0 0 0 0 0 0 0 0 0 0 0 0 0 0 0 0 0 0 0 0 0 0 0 0 0 0 0 0 0 0 0 0 0 0 0 0 1
0 0 0 0 0 0 0 0 0 0 0 0 0 0 0 0 0 0 0 0 0 0 0 0 0 0 0 0 0 0 0 0 0 0 0 0 0 0 0 0 1 0 0
0 0 0 0 0 0 0 0 0 0 0 0 0 0 0 0 0 0 0 0 0 0 0 0 0 0 0 0 0 0 0 0 0 0 0 0 0 0 0 0 0 0 0
0 0 0 0 0 0 0 0 0 0 0 0 0 0 0 0 0 0 0 0 0 0 0 0 0 1 3 3 0 0 0 0 0 0 0 0 0 0 0 0 1 0 0
0 0 0 0 0 0 0 0 0 0 0 0 0 0 0 0 0 0 0 0 0 0 0 0 1 0 1 2 2 1 0 1 1 2 1 0 0 0 0 0 0 1 1
0 0 0 0 0 0 0 0 0 0 0 0 0 0 0 0 0 0 0 1 0 0 0 1 0 0 2 2 0 0 1 0 0 0 0 0 0 0 0 0 0 0 1
0 0 0 0 0 0 0 0 0 0 0 1 1 0 0 0 0 0 0 1 2 1 1 0 0 1 1 0 0 1 0 0 1 0 0 0 0 0 0 0 0 0 0
0 0 0 0 0 0 0 0 0 0 1 1 1 0 0 0 0 0 0 0 1 2 0 0 0 0 0 0 0 0 1 1 1 0 0 0 0 0 0 0 0 0 0
0 1 1 2 2 1 1 1 1 0 1 1 1 1 0 0 0 0 0 4 4 2 0 1 2 2 1 1 1 1 0 0 0 0 0 0 0 0 0 0 0 0 0
0 0 1 0 0 0 0 0 0 2 1 1 1 1 0 0 0 0 0 1 1 1 1 0 1 1 1 0 0 0 0 0 0 0 0 0 0 0 0 0 0 0 0
0 0 0 0 0 0 0 0 1 2 1 4 0 0 0 0 0 0 0 0 0 0 0 0 0 0 0 0 0 0 0 0 0 0 0 0 0 0 0 0 0 0 0
0 0 0 0 0 0 0 0 0 0 0 0 0 0 0 2 1 0 1 0 0 0 0 0 0 0 0 0 0 0 0 0 0 0 0 0 0 0 0 0 0 0 0
0 0 0 0 0 0 0 0 0 0 0 0 0 0 0 0 0 0 0 0 0 0 0 0 0 0 0 0 0 0 0 0 0 0 0 0 0 0 0 0 0 0 0
0 0 0 0 0 0 0 0 0 0 0 0 0 0 0 0 0 0 0 0 0 0 0 0 0 0 0 0 0 0 0 0 0 0 0 0 0 0 0 0 0 0 0
0 0 0 0 0 0 0 0 0 0 0 0 0 0 0 0 0 0 0 0 0 0 0 0 0 0 0 0 0 0 0 0 0 0 0 0 0 0 0 0 0 0 0
0 0 0 0 0 0 0 0 0 0 0 0 0 0 0 0 0 0 0 0 0 0 0 0 0 0 0 0 0 0 0 0 0 0 0 0 0 0 0 0 0 0 0
0 0 0 0 0 0 0 0 0 0 0 0 0 0 0 0 0 0 0 0 0 0 0 0 0 0 0 0 0 0 0 0 0 0 0 0 0 0 0 0 0 0 0
0 0 0 0 0 0 0 0 0 0 0 0 0 0 0 0 0 0 0 0 0 0 0 0 0 0 0 0 0 0 0 0 0 0 0 0 0 0 0 0 0 0 0
0 0 0 0 0 0 0 0 0 0 0 0 0 0 0 0 0 0 0 0 0 0 0 0 0 0 0 0 0 0 0 0 0 0 0 0 0 0 0 0 0 0 0
CIN
0 0 0 0 0 0 0 0 0 0 0 0 0 0 0 0 0 0 0 0 0 0 0 0 0 0 0 0 0 0 0 0 0 0 0 0 0 0 0 0 0 0 0
0 0 0 0 0 0 0 0 0 0 0 0 0 0 0 0 0 0 0 0 0 0 0 0 0 0 0 0 0 0 0 0 0 0 0 0 0 0 0 0 0 0 0
0 0 0 0 0 0 0 0 0 0 0 0 0 0 0 0 0 0 0 0 0 0 0 0 0 0 0 0 0 0 0 0 0 0 0 0 0 0 0 0 0 0 0
0 0 0 0 0 0 0 0 0 0 0 0 0 0 0 0 0 0 0 0 0 0 0 0 0 0 0 0 0 0 0 0 0 0 0 0 0 0 0 0 0 0 0
0 0 0 0 0 0 0 0 0 0 0 0 0 0 0 0 0 0 0 0 0 0 0 0 0 0 0 0 0 0 0 0 0 0 0 0 0 0 0 0 0 0 0
0 0 0 0 0 0 0 0 0 0 0 0 0 0 0 0 0 0 0 0 0 0 0 0 0 0 0 0 0 0 0 0 0 0 0 0 0 0 0 0 0 0 0
0 0 0 0 0 0 0 0 0 0 0 0 0 0 0 0 0 0 0 0 0 0 0 0 0 0 0 0 0 0 0 0 0 0 0 0 0 0 0 0 0 0 0
0 0 0 0 0 0 0 0 0 0 0 0 0 0 0 0 0 0 0 0 0 0 0 0 0 0 0 0 0 0 0 0 0 0 0 0 0 0 0 0 0 0 0
0 0 0 0 0 0 0 0 0 0 0 0 0 0 0 0 0 0 0 0 0 0 0 0 0 0 0 0 0 0 0 0 0 0 0 0 0 0 0 -2 -0 0 0
0 0 0 0 0 0 0 0 0 0 0 0 0 0 0 0 0 0 0 0 0 0 0 0 0 0 0 0 0 0 0 0 0 0 0 0 0 0 0 0 0 0 0
0 0 0 0 0 0 0 0 0 0 0 0 0 0 0 0 0 0 0 0 0 0 0 0 0 0 0 0 0 0 0 0 0 0 0 0 0 -0 0 0 0 0 0
0 0 0 0 0 0 0 0 0 0 0 0 0 0 0 0 0 0 0 0 0 0 0 0 0 0 0 0 0 0 0 -0 -0 0 -0 -0 -0 0 0 0 0 0 0
0 0 0 0 0 0 0 0 0 0 0 0 0 0 0 0 0 0 0 0 0 0 0 0 0 0 0 0 -0 -0 -1 -1 0 0 -0 -0 -0 0 0 -0 -1 -2 -0
0 0 0 0 0 0 0 0 0 0 0 0 0 0 0 0 0 0 0 0 -0 0 0 0 0 0 0 0 0 -0 0 0 0 -0 0 -0 0 0 0 0 0 0 0
0 0 0 0 0 0 0 0 0 0 0 0 0 0 0 0 0 0 0 0 0 0 0 0 0 0 0 0 0 0 0 0 0 0 0 0 0 0 0 0 0 0 0
0 0 0 0 0 0 0 0 0 0 0 0 0 0 0 0 0 0 0 0 0 0 0 0 0 0 0 0 0 0 0 0 0 0 0 0 0 0 0 0 0 0 0
0 0 0 0 0 0 0 0 0 0 0 0 0 0 0 0 0 0 0 0 -0 0 0 0 0 0 0 0 0 0 0 0 0 0 0 0 0 0 0 0 0 0 0
0 0 0 0 0 0 0 0 0 0 0 0 0 0 0 0 0 0 0 0 0 0 0 0 0 0 0 0 0 0 0 0 0 0 0 0 0 0 0 0 0 0 0
0 0 0 0 0 0 0 0 0 0 0 0 0 0 0 0 0 0 0 0 0 0 0 0 0 0 0 0 0 0 0 0 0 0 0 0 0 0 0 0 0 0 0
0 0 0 0 0 0 0 0 0 0 0 0 0 0 0 0 0 0 0 0 0 0 0 0 0 0 0 0 0 0 0 0 0 0 0 0 0 0 0 0 0 0 0
0 0 0 0 0 0 0 0 0 0 0 0 0 0 0 0 0 0 0 0 0 0 0 0 0 0 0 0 0 0 0 0 0 0 0 0 0 0 0 0 0 0 0
0 0 0 0 0 0 0 0 0 0 0 0 0 0 0 0 0 0 0 0 0 0 0 0 0 0 0 0 0 0 0 0 0 0 0 0 0 0 0 0 0 0 0
0 0 0 0 0 0 0 0 0 0 0 0 0 0 0 0 0 0 0 0 0 0 0 0 0 0 0 0 0 0 0 0 0 0 0 0 0 0 0 0 0 0 0
0 0 0 0 0 0 0 0 0 0 0 0 0 0 0 0 0 0 0 0 0 0 0 0 0 0 0 0 0 0 0 0 0 0 0 0 0 0 0 0 0 0 0
0 0 0 0 0 0 0 0 0 0 0 0 0 0 0 0 0 0 0 0 0 0 0 0 0 0 0 0 0 0 0 0 0 0 0 0 0 0 0 0 0 0 0
0 0 0 0 0 0 0 0 0 0 0 0 0 0 0 0 0 0 0 0 0 0 0 0 0 0 0 0 0 0 0 0 0 0 0 0 0 0 0 0 0 0 0
Wind_Speed
18 17 17 17 17 16 17 18 19 18 18 18 17 17 17 16 16 16 16 16 16 14 13 13 13 13 14 14 18 24 22 23 28 26 25 25 27 28 29 29 31 32 33
18 17 17 17 17 17 18 18 17 18 17 17 17 18 17 16 17 17 17 17 16 15 14 13 13 12 12 17 24 22 23 23 26 29 28 27 28 29 30 32 32 33 33
20 19 18 17 18 18 18 17 17 17 17 17 18 19 19 18 18 18 18 17 17 16 15 14 13 11 16 23 21 22 22 23 24 28 30 28 29 30 32 32 33 34 34
21 20 20 19 19 19 18 18 18 18 18 19 19 20 20 20 19 19 18 18 17 16 15 15 13 15 22 22 22 22 23 25 26 28 31 32 32 31 34 37 38 36 39
22 22 22 20 19 19 18 18 18 18 19 19 20 21 21 21 21 20 20 19 18 17 16 15 15 20 22 22 22 22 23 26 28 30 32 32 34 35 37 36 40 41 42
26 25 24 22 20 19 18 18 18 18 19 19 20 22 23 23 22 22 21 20 19 18 18 17 19 22 24 24 23 23 23 26 29 31 32 34 35 35 36 38 41 45 50
29 27 25 22 21 21 19 18 18 18 18 19 21 22 24 24 23 23 21 21 20 19 19 19 22 25 25 25 25 24 25 24 26 30 33 34 36 36 38 40 41 44 47
27 26 24 22 21 20 19 19 19 19 19 20 21 22 23 24 23 23 22 21 21 20 19 21 25 26 26 25 26 29 29 27 27 28 31 34 34 35 36 40 43 44 44
27 25 23 22 21 21 21 20 20 20 21 21 22 22 24 23 23 23 22 22 22 21 20 23 26 27 26 25 29 31 31 31 29 29 31 33 35 37 37 39 42 43 50
25 24 22 21 21 21 21 21 21 21 22 21 22 22 22 22 22 22 22 22 23 22 23 26 28 29 26 24 27 30 33 32 31 32 33 35 35 35 35 35 39 44 47
23 22 21 20 20 20 19 19 19 20 20 20 20 20 20 20 21 21 22 22 24 25 28 30 30 27 25 25 26 28 30 32 32 33 35 34 34 35 35 34 35 37 43
20 19 18 17 17 17 17 17 17 18 19 19 19 20 19 19 20 21 21 22 23 26 28 30 28 23 25 25 27 28 29 31 32 32 34 36 36 36 36 35 35 35 36
19 19 18 17 16 15 16 16 16 15 17 17 18 19 19 19 19 20 19 20 22 25 25 24 23 24 26 25 28 29 28 29 31 33 35 36 36 36 36 37 36 36 38
17 16 15 14 13 12 13 13 13 14 14 14 15 15 16 17 17 16 17 17 19 22 25 25 25 26 26 26 26 25 26 27 30 33 34 33 34 35 36 36 39 40 44
12 11 11 10 10 9 8 8 9 9 9 10 10 10 12 14 16 16 17 21 23 24 26 26 26 25 25 24 25 25 26 28 31 31 32 33 34 35 37 37 39 42 44
12 11 11 10 9 9 9 12 10 10 10 11 11 11 15 19 19 21 22 22 22 21 24 25 25 24 25 26 27 28 28 28 28 29 31 32 36 37 38 38 38 40 43
11 10 10 9 9 10 10 11 11 11 13 14 14 15 16 18 18 18 18 18 19 19 23 24 25 25 26 26 27 27 28 27 27 29 30 33 34 35 36 37 37 38 39
10 10 9 10 11 12 12 12 12 13 15 17 17 17 17 16 17 17 16 16 20 21 23 24 25 25 25 26 26 27 27 27 27 28 31 31 32 33 34 35 35 36 37
11 12 12 12 13 12 12 13 14 15 16 16 17 18 18 15 18 18 18 20 22 24 24 25 25 25 26 27 27 27 26 27 26 29 29 30 30 31 32 32 32 33 32
12 12 13 14 14 15 16 17 18 18 17 18 19 19 19 20 22 22 23 24 25 26 26 27 27 27 27 27 26 26 26 27 27 28 28 28 29 29 30 30 30 30 28
14 15 16 17 18 18 19 20 20 21 21 21 21 21 21 22 24 25 27 27 27 28 28 28 28 27 27 26 26 26 27 27 27 27 27 27 27 27 27 27 27 25 24
16 17 18 19 19 19 20 20 21 21 21 21 22 23 24 26 28 29 29 29 29 29 28 28 28 27 26 26 26 27 27 26 26 26 26 26 25 25 25 25 24 22 22
17 17 18 19 19 19 20 21 22 22 23 24 25 26 27 29 30 31 31 31 30 29 28 28 29 28 27 26 25 25 26 26 25 24 24 24 24 24 23 23 22 21 19
17 17 18 19 20 21 23 24 25 25 26 27 28 29 31 32 32 32 32 32 31 31 30 30 30 29 28 27 26 25 24 23 23 23 22 23 23 22 21 21 20 19 18
18 19 21 22 23 25 26 27 29 30 31 32 33 34 35 34 35 35 34 34 34 34 32 31 30 29 28 28 27 26 25 23 23 22 22 21 21 20 19 20 20 19 17
21 22 23 24 27 28 30 32 33 33 35 36 36 36 37 38 37 37 37 36 36 35 34 32 31 29 28 28 27 27 25 24 23 22 20 20 19 18 18 19 19 18 18
Wind_Direction
291 281 274 270 265 261 257 254 256 257 255 251 248 246 246 244 242 241 241 242 246 254 263 270 282 293 303 312 318 319 317 317 315 320 323 325 326 328 330 332 333 333 332
297 289 278 273 268 264 262 259 255 255 254 247 247 242 242 240 234 234 232 236 239 244 254 264 273 286 297 309 314 313 313 316 316 315 320 323 324 327 328 329 331 331 330
298 292 284 275 269 266 264 260 258 256 253 250 242 237 236 235 233 235 235 236 242 248 252 259 266 275 295 307 306 308 310 313 315 315 318 323 324 326 326 327 328 328 329
296 292 285 277 271 268 267 263 260 257 255 251 244 240 236 237 239 239 240 240 245 250 255 261 263 282 299 302 302 304 307 309 312 313 316 318 321 324 324 324 325 327 327
291 289 284 279 272 270 270 265 263 260 260 255 249 247 244 241 241 240 241 246 248 254 261 264 274 294 301 300 300 301 303 306 309 312 314 317 318 320 321 324 323 325 325
285 284 284 278 272 267 269 264 261 259 260 256 250 246 244 245 243 238 240 244 248 252 258 267 286 299 300 297 295 300 301 303 306 310 313 314 316 318 320 321 322 323 323
282 282 281 276 270 266 266 263 259 258 259 255 253 250 247 248 241 238 241 246 249 253 258 271 289 301 298 297 294 296 298 300 304 310 310 313 315 318 319 319 320 320 320
281 281 279 275 270 266 265 263 263 262 259 258 256 254 251 250 241 240 242 247 252 254 259 276 295 297 294 293 294 296 299 301 303 305 308 312 314 317 317 318 318 318 319
282 279 276 272 269 268 266 267 266 267 267 265 264 259 255 252 243 241 246 249 251 255 265 285 296 295 294 290 294 298 300 302 304 304 306 309 311 313 315 318 318 318 318
288 284 281 274 269 267 267 268 270 270 271 271 271 266 260 253 244 242 249 253 255 263 275 287 291 293 294 289 292 298 300 303 307 309 311 312 314 315 316 315 317 316 318
294 291 286 282 278 275 272 273 274 274 275 274 274 272 264 255 247 243 246 255 262 271 282 289 293 292 292 293 293 297 299 307 309 310 312 315 316 318 319 320 319 318 318
299 296 293 289 286 281 278 279 277 275 276 278 279 275 270 264 256 250 252 260 266 273 285 293 296 293 297 295 298 298 301 305 309 311 313 316 318 320 322 322 322 321 320
300 297 295 293 291 287 283 281 281 279 281 281 279 275 272 267 265 260 256 258 269 281 289 294 296 298 301 301 301 302 305 307 310 311 313 316 320 322 324 324 325 324 323
306 302 300 298 295 294 293 288 284 283 282 284 282 280 278 273 270 269 270 273 278 286 293 297 299 299 302 304 307 307 310 312 312 313 316 319 321 323 324 325 324 325 324
324 320 317 317 312 314 312 307 304 306 299 294 293 292 284 281 277 277 279 285 289 292 299 302 303 304 305 307 310 311 312 314 314 316 318 320 321 323 324 326 326 326 325
317 322 322 321 319 318 316 314 325 324 317 311 305 300 299 296 293 289 289 292 296 298 303 302 302 303 303 306 307 310 313 315 317 319 320 321 322 323 324 326 327 328 327
322 327 329 327 317 313 316 315 317 328 331 325 319 314 308 306 305 305 303 302 303 303 303 305 305 306 307 308 310 312 314 317 320 320 321 322 323 324 326 327 328 330 330
331 335 335 323 314 313 316 317 317 316 319 320 323 322 320 318 317 314 312 314 311 312 309 309 309 309 310 311 312 314 316 318 319 320 321 323 324 325 327 328 330 331 333
333 326 320 317 314 322 324 323 320 318 319 320 323 326 327 330 329 327 321 314 312 311 311 311 312 311 312 313 314 315 316 317 318 319 321 323 325 326 327 330 332 333 335
326 325 318 317 317 319 317 316 315 316 317 316 315 317 320 320 318 318 318 317 315 313 313 312 312 312 312 312 313 314 315 316 317 318 320 322 324 327 328 331 333 335 338
319 318 319 319 317 317 317 315 315 315 314 315 317 320 321 318 317 317 316 315 314 313 312 312 312 311 311 312 313 313 313 315 316 318 319 322 324 326 329 332 334 336 339
317 319 321 322 324 326 325 325 324 321 321 320 320 319 319 317 315 314 314 314 315 315 314 313 312 311 311 310 311 311 312 312 314 316 318 321 323 326 329 331 333 335 337
327 330 331 330 332 334 333 331 329 326 323 321 319 317 317 316 316 315 314 314 314 314 313 312 311 310 310 310 310 309 309 310 312 315 317 319 322 325 328 330 332 333 335
339 338 337 335 333 330 328 326 325 324 322 320 319 318 316 315 314 314 314 314 313 312 311 310 308 307 307 307 307 307 307 309 311 312 314 317 320 323 326 328 329 330 333
335 333 332 330 328 325 324 323 321 320 319 317 316 315 315 315 313 313 313 312 311 309 308 307 307 305 304 303 303 304 305 305 306 309 311 313 315 318 322 324 326 328 329
331 330 329 328 323 322 320 319 318 317 316 316 315 314 313 312 312 311 310 310 308 307 306 306 305 303 303 303 302 301 301 302 303 303 307 310 311 314 317 319 321 322 324